Gaz Unity — HOEJ — position and weather

sailwx.info

Track history (hours):
 
Tides and Currents Weather Stations Pressure Air Temp Water Temp Dewpoint Dewpoint Depression Visibility Wind Speed Wind Dir Waves Ship Positions

Gaz Unity

Last reported at 2017-Jun-25 06:43 UTC. Time now 2017-Aug-19 03:54 UTC.
Position N 34°36' E 024°50'.
Warning: this ship's position is 54 days out of date.

Length 228 m; draft 8.3 m.

Type: Ship (hazmat cat D). MMSI: 353956000.

Date/timePositionNaut miles runAvg speedWind from/ knotsBaromVisibWave heightAir tempDewpointWater temp
2017-Jun-25 06:43N 34°36' E 024°50'0 0.6
2017-Jun-25 06:29N 34°36' E 024°50'0 0.5
2017-Jun-25 05:57N 34°36' E 024°49'5 0.3
2017-Jun-24 11:02N 34°31' E 024°49'0 4.9
2017-Jun-24 11:00N 34°31' E 024°49'2 0.8
2017-Jun-24 08:04N 34°29' E 024°48'0 0.8
2017-Jun-24 08:00N 34°29' E 024°48'0 0.7
2017-Jun-24 07:30N 34°29' E 024°47'2 2.1
2017-Jun-24 06:33N 34°27' E 024°46'2 6.9
2017-Jun-24 06:19N 34°28' E 024°48'3 9.4
2017-Jun-24 06:00N 34°31' E 024°50'5 9.5
2017-Jun-24 05:29N 34°34' E 024°54'1 0.6
2017-Jun-24 04:07N 34°35' E 024°55'0 0.4
2017-Jun-24 03:59N 34°35' E 024°55'0 0.4
2017-Jun-24 03:13N 34°35' E 024°54'0 0.4
2017-Jun-24 03:00N 34°35' E 024°54'0 0.4
2017-Jun-24 02:22N 34°35' E 024°54'0 0.4
2017-Jun-24 02:00N 34°34' E 024°54'1 0.4
2017-Jun-23 23:25N 34°34' E 024°53'  
2017-Jun-17 13:17N 34°34' E 024°48'3 1.4
2017-Jun-17 11:05N 34°33' E 024°45'1 1.5
2017-Jun-17 10:37N 34°33' E 024°44'1 1.4
2017-Jun-17 10:16N 34°33' E 024°43'3 0.3
2017-Jun-16 21:08N 34°31' E 024°40'55 2.8
2017-Jun-16 01:39N 33°59' E 025°35'2 1.1
2017-Jun-16 00:00N 34°01' E 025°36'3 1.2
2017-Jun-15 21:20N 34°04' E 025°36'0 1.4
2017-Jun-15 21:00N 34°05' E 025°36'1 1.4
2017-Jun-15 20:29N 34°05' E 025°36'1 1.5
2017-Jun-15 19:59N 34°06' E 025°36'1 1.4
2017-Jun-15 19:30N 34°07' E 025°35'1 1.5
2017-Jun-15 19:00N 34°07' E 025°35'1 1.4
2017-Jun-15 18:29N 34°08' E 025°34'1 1.3
2017-Jun-15 18:00N 34°08' E 025°34'1 1.4
2017-Jun-15 17:30N 34°09' E 025°33'5 1.1
2017-Jun-15 12:21N 34°10' E 025°27'0 1.0
2017-Jun-15 11:58N 34°10' E 025°26'0 0.9
2017-Jun-15 11:30N 34°10' E 025°26'3 0.9
2017-Jun-15 08:01N 34°10' E 025°22'0 0.7
2017-Jun-15 08:00N 34°10' E 025°22'  
Track history (hours):
 
Tides and Currents Weather Stations Pressure Air Temp Water Temp Dewpoint Dewpoint Depression Visibility Wind Speed Wind Dir Waves Ship Positions

Gaz Unity

Last reported at 2017-Jun-25 06:43 UTC. Time now 2017-Aug-19 03:54 UTC.
Position N 34°36' E 024°50'.
Warning: this ship's position is 54 days out of date.

Length 228 m; draft 8.3 m.

Type: Ship (hazmat cat D). MMSI: 353956000.

Date/timePositionNaut miles runAvg speedWind from/ knotsBaromVisibWave heightAir tempDewpointWater temp
2017-Jun-25 06:43N 34°36' E 024°50'0 0.6
2017-Jun-25 06:29N 34°36' E 024°50'0 0.5
2017-Jun-25 05:57N 34°36' E 024°49'5 0.3
2017-Jun-24 11:02N 34°31' E 024°49'0 4.9
2017-Jun-24 11:00N 34°31' E 024°49'2 0.8
2017-Jun-24 08:04N 34°29' E 024°48'0 0.8
2017-Jun-24 08:00N 34°29' E 024°48'0 0.7
2017-Jun-24 07:30N 34°29' E 024°47'2 2.1
2017-Jun-24 06:33N 34°27' E 024°46'2 6.9
2017-Jun-24 06:19N 34°28' E 024°48'3 9.4
2017-Jun-24 06:00N 34°31' E 024°50'5 9.5
2017-Jun-24 05:29N 34°34' E 024°54'1 0.6
2017-Jun-24 04:07N 34°35' E 024°55'0 0.4
2017-Jun-24 03:59N 34°35' E 024°55'0 0.4
2017-Jun-24 03:13N 34°35' E 024°54'0 0.4
2017-Jun-24 03:00N 34°35' E 024°54'0 0.4
2017-Jun-24 02:22N 34°35' E 024°54'0 0.4
2017-Jun-24 02:00N 34°34' E 024°54'1 0.4
2017-Jun-23 23:25N 34°34' E 024°53'  
2017-Jun-17 13:17N 34°34' E 024°48'3 1.4
2017-Jun-17 11:05N 34°33' E 024°45'1 1.5
2017-Jun-17 10:37N 34°33' E 024°44'1 1.4
2017-Jun-17 10:16N 34°33' E 024°43'3 0.3
2017-Jun-16 21:08N 34°31' E 024°40'55 2.8
2017-Jun-16 01:39N 33°59' E 025°35'2 1.1
2017-Jun-16 00:00N 34°01' E 025°36'3 1.2
2017-Jun-15 21:20N 34°04' E 025°36'0 1.4
2017-Jun-15 21:00N 34°05' E 025°36'1 1.4
2017-Jun-15 20:29N 34°05' E 025°36'1 1.5
2017-Jun-15 19:59N 34°06' E 025°36'1 1.4
2017-Jun-15 19:30N 34°07' E 025°35'1 1.5
2017-Jun-15 19:00N 34°07' E 025°35'1 1.4
2017-Jun-15 18:29N 34°08' E 025°34'1 1.3
2017-Jun-15 18:00N 34°08' E 025°34'1 1.4
2017-Jun-15 17:30N 34°09' E 025°33'5 1.1
2017-Jun-15 12:21N 34°10' E 025°27'0 1.0
2017-Jun-15 11:58N 34°10' E 025°26'0 0.9
2017-Jun-15 11:30N 34°10' E 025°26'3 0.9
2017-Jun-15 08:01N 34°10' E 025°22'0 0.7
2017-Jun-15 08:00N 34°10' E 025°22'  

Dump ship's entire track history